Hourly Weather Kyzylorda

Today, 29 October, Thursday

Time Temperature Precipitation Wind Pressure Humidity
00:00 -3°C° 0 mm 2 mps 765 mmHg 73%
01:00 -3°C° 0 mm 2 mps 765 mmHg 75%
02:00 -3°C° 0 mm 2 mps 765 mmHg 75%
03:00 -3°C° 0 mm 2 mps 766 mmHg 75%
04:00 -3°C° 0 mm 2 mps 766 mmHg 75%
05:00 -3°C° 0 mm 2 mps 766 mmHg 72%
06:00 -2°C° 0 mm 3 mps 766 mmHg 69%
07:00 -2°C° 0 mm 3 mps 767 mmHg 66%
08:00 +1°C° 0 mm 3 mps 767 mmHg 57%
09:00 +3°C° 0 mm 4 mps 767 mmHg 48%
10:00 +6°C° 0 mm 4 mps 767 mmHg 38%
11:00 +7°C° 0 mm 4 mps 766 mmHg 35%
12:00 +8°C° 0 mm 4 mps 766 mmHg 31%
13:00 +10°C° 0 mm 4 mps 766 mmHg 28%
14:00 +10°C° 0 mm 4 mps 766 mmHg 29%
15:00 +8°C° 0 mm 4 mps 765 mmHg 29%
16:00 +8°C° 0 mm 4 mps 765 mmHg 30%
17:00 +6°C° 0 mm 4 mps 765 mmHg 34%
18:00 +5°C° 0 mm 5 mps 765 mmHg 38%
19:00 +2°C° 0 mm 5 mps 765 mmHg 42%
20:00 +2°C° 0 mm 5 mps 765 mmHg 42%
21:00 +2°C° 0 mm 5 mps 765 mmHg 43%
22:00 +1°C° 0 mm 5 mps 765 mmHg 43%
23:00 +1°C° 0 mm 5 mps 764 mmHg 44%

Tomorrow, 30 October, Friday

Time Temperature Precipitation Wind Pressure Humidity
00:00 +1°C° 0 mm 6 mps 764 mmHg 45%
01:00 +1°C° 0 mm 6 mps 763 mmHg 45%
02:00 +1°C° 0 mm 6 mps 763 mmHg 46%
03:00 +1°C° 0 mm 6 mps 763 mmHg 47%
04:00 -1°C° 0 mm 6 mps 763 mmHg 47%
05:00 +1°C° 0 mm 6 mps 763 mmHg 46%
06:00 0°C° 0 mm 7 mps 763 mmHg 45%
07:00 0°C° 0 mm 7 mps 763 mmHg 44%
08:00 +4°C° 0 mm 8 mps 763 mmHg 38%
09:00 +6°C° 0 mm 9 mps 762 mmHg 32%
10:00 +8°C° 0 mm 9 mps 762 mmHg 26%
11:00 +11°C° 0 mm 9 mps 762 mmHg 24%
12:00 +12°C° 0 mm 9 mps 761 mmHg 23%
13:00 +13°C° 0 mm 10 mps 761 mmHg 21%
14:00 +12°C° 0 mm 9 mps 761 mmHg 22%
15:00 +12°C° 0 mm 8 mps 760 mmHg 23%
16:00 +11°C° 0 mm 8 mps 760 mmHg 25%
17:00 +10°C° 0 mm 7 mps 760 mmHg 27%
18:00 +8°C° 0 mm 7 mps 760 mmHg 30%
19:00 +6°C° 0 mm 7 mps 760 mmHg 32%
20:00 +6°C° 0 mm 7 mps 760 mmHg 34%
21:00 +6°C° 0 mm 7 mps 760 mmHg 35%
22:00 +5°C° 0 mm 7 mps 759 mmHg 37%
23:00 +5°C° 0 mm 7 mps 759 mmHg 39%

Day after tomorrow, 31 October, Saturday

Time Temperature Precipitation Wind Pressure Humidity
00:00 +5°C° 0 mm 7 mps 759 mmHg 41%
01:00 +4°C° 0 mm 7 mps 758 mmHg 43%
02:00 +4°C° 0 mm 6 mps 758 mmHg 44%
03:00 +3°C° 0 mm 6 mps 758 mmHg 45%
04:00 +3°C° 0 mm 6 mps 758 mmHg 46%
05:00 +3°C° 0 mm 6 mps 758 mmHg 46%
06:00 +3°C° 0 mm 6 mps 758 mmHg 45%
07:00 +3°C° 0 mm 7 mps 758 mmHg 44%
08:00 +6°C° 0 mm 7 mps 758 mmHg 38%
09:00 +10°C° 0 mm 8 mps 758 mmHg 31%
10:00 +13°C° 0 mm 8 mps 758 mmHg 25%
11:00 +15°C° 0 mm 8 mps 758 mmHg 23%
12:00 +16°C° 0 mm 9 mps 757 mmHg 21%
13:00 +17°C° 0 mm 9 mps 757 mmHg 19%
14:00 +16°C° 0 mm 8 mps 757 mmHg 20%
15:00 +15°C° 0 mm 8 mps 756 mmHg 22%
16:00 +14°C° 0 mm 7 mps 756 mmHg 24%
17:00 +12°C° 0 mm 7 mps 756 mmHg 27%
18:00 +10°C° 0 mm 7 mps 756 mmHg 30%
19:00 +9°C° 0 mm 6 mps 756 mmHg 33%
20:00 +8°C° 0 mm 6 mps 756 mmHg 34%
21:00 +7°C° 0 mm 5 mps 756 mmHg 36%
22:00 +7°C° 0 mm 5 mps 756 mmHg 37%
23:00 +6°C° 0 mm 4 mps 756 mmHg 39%

1 November, Sunday

Time Temperature Precipitation Wind Pressure Humidity
00:00 +6°C° 0 mm 4 mps 756 mmHg 41%
01:00 +5°C° 0 mm 4 mps 756 mmHg 43%
02:00 +5°C° 0 mm 4 mps 755 mmHg 44%
03:00 +4°C° 0 mm 3 mps 755 mmHg 45%
04:00 +4°C° 0 mm 3 mps 755 mmHg 47%
05:00 +4°C° 0 mm 3 mps 755 mmHg 46%
06:00 +4°C° 0 mm 3 mps 755 mmHg 45%
07:00 +4°C° 0 mm 3 mps 756 mmHg 45%
08:00 +8°C° 0 mm 2 mps 755 mmHg 38%
09:00 +10°C° 0 mm 2 mps 755 mmHg 32%
10:00 +14°C° 0 mm 1 mps 755 mmHg 26%
11:00 +15°C° 0 mm 1 mps 755 mmHg 23%
12:00 +18°C° 0 mm 1 mps 755 mmHg 21%
13:00 +17°C° 0 mm 0 mps 755 mmHg 18%
14:00 +18°C° 0 mm 1 mps 754 mmHg 21%
15:00 +15°C° 0 mm 1 mps 754 mmHg 23%
16:00 +14°C° 0 mm 1 mps 754 mmHg 25%
17:00 +12°C° 0 mm 2 mps 754 mmHg 29%
18:00 +10°C° 0 mm 3 mps 754 mmHg 32%
19:00 +9°C° 0 mm 3 mps 754 mmHg 36%
20:00 +8°C° 0 mm 3 mps 754 mmHg 41%
21:00 +6°C° 0 mm 2 mps 754 mmHg 47%
22:00 +5°C° 0 mm 2 mps 754 mmHg 52%
23:00 +5°C° 0 mm 2 mps 754 mmHg 51%

2 November, Monday

Time Temperature Precipitation Wind Pressure Humidity
00:00 +5°C° 0 mm 2 mps 755 mmHg 50%
01:00 +5°C° 0 mm 2 mps 755 mmHg 49%
02:00 +5°C° 0 mm 2 mps 755 mmHg 49%
03:00 +5°C° 0 mm 2 mps 755 mmHg 49%
04:00 +3°C° 0 mm 3 mps 755 mmHg 49%
05:00 +4°C° 0 mm 3 mps 756 mmHg 48%
06:00 +4°C° 0 mm 3 mps 756 mmHg 47%
07:00 +4°C° 0 mm 3 mps 756 mmHg 46%
08:00 +8°C° 0 mm 3 mps 757 mmHg 39%
09:00 +11°C° 0 mm 3 mps 757 mmHg 32%
10:00 +14°C° 0 mm 3 mps 757 mmHg 25%
11:00 +16°C° 0 mm 3 mps 757 mmHg 22%
12:00 +18°C° 0 mm 4 mps 757 mmHg 20%
13:00 +19°C° 0 mm 4 mps 757 mmHg 17%
14:00 +18°C° 0 mm 4 mps 757 mmHg 19%
15:00 +17°C° 0 mm 4 mps 757 mmHg 21%
16:00 +15°C° 0 mm 4 mps 757 mmHg 22%
17:00 +13°C° 0 mm 4 mps 757 mmHg 26%
18:00 +11°C° 0 mm 4 mps 758 mmHg 30%
19:00 +8°C° 0 mm 4 mps 758 mmHg 33%
20:00 +8°C° 0 mm 4 mps 758 mmHg 34%
21:00 +7°C° 0 mm 4 mps 758 mmHg 35%
22:00 +7°C° 0 mm 4 mps 759 mmHg 36%
23:00 +6°C° 0 mm 4 mps 759 mmHg 35%

3 November, Tuesday

Time Temperature Precipitation Wind Pressure Humidity
00:00 +6°C° 0 mm 4 mps 759 mmHg 34%
01:00 +5°C° 0 mm 3 mps 759 mmHg 33%
02:00 +5°C° 0 mm 4 mps 759 mmHg 34%
03:00 +5°C° 0 mm 4 mps 759 mmHg 35%
04:00 +4°C° 0 mm 4 mps 759 mmHg 36%
05:00 +4°C° 0 mm 4 mps 760 mmHg 37%
06:00 +3°C° 0 mm 5 mps 760 mmHg 39%
07:00 +2°C° 0 mm 5 mps 761 mmHg 41%
08:00 +5°C° 0 mm 5 mps 761 mmHg 44%
09:00 +7°C° 0 mm 6 mps 761 mmHg 48%
10:00 +10°C° 0 mm 6 mps 761 mmHg 51%
11:00 +10°C° 0 mm 7 mps 761 mmHg 46%
12:00 +11°C° 0 mm 7 mps 761 mmHg 41%
13:00 +12°C° 0 mm 7 mps 761 mmHg 36%
14:00 +11°C° 0 mm 7 mps 761 mmHg 35%
15:00 +10°C° 0 mm 6 mps 761 mmHg 35%
16:00 +9°C° 0 mm 6 mps 762 mmHg 35%
17:00 +8°C° 0 mm 6 mps 762 mmHg 41%
18:00 +6°C° 0 mm 5 mps 762 mmHg 47%
19:00 +5°C° 0 mm 5 mps 762 mmHg 53%
20:00 +3°C° 0 mm 5 mps 762 mmHg 53%
21:00 +2°C° 0 mm 5 mps 762 mmHg 53%
22:00 +2°C° 0 mm 6 mps 762 mmHg 53%
23:00 +1°C° 0 mm 5 mps 762 mmHg 55%
Show more

We Need Your Consent

Meteoprog and our Service Providers may store and access personal data such as cookies, device identifiers or other similar technologies on your device and process such data to personalise content and ads, as well as provide social media features and to analyse the traffic.

  • Store and/or access information on your device

    Cookies, device identifiers or other information can be stored or accessed on your device for the purposes indicated above.

  • Personalised ads and content, ad and content measurement, audience insights, and products development

    Ads and content can be personalised based on a profile. More data can be added to better personalise ads and content. Ad and content performance can be measured. Insights about the audience who saw the ads and content can be derived. Such data can be used to develop or improve user’s experience, systems and software.

By clicking ‘I Agree’ you will allow the use of indicated cookies, device identifiers, web beacons or other similar technologies. Your settings can be changed in the browser on your device.

For certain purposes, legitimate interests may be relied on, rather than consent. You can read more about this in our Privacy and Cookie Policy.